Regional Weather Roundup
Issued by NWS

Home | Current Version | Previous Version | Graphics & Text | Print | Product List | Glossary On
Versions: 1 2 3 4 5 6 7 8 9 10 11 12 13 14 15 16 17 18 19 20 21 22 23 24 25 26 27 28 29 30 31 32 33 34 35 36 37 38 39 40 41 42 43 44 45 46 47 48 49 50
000
ASUS43 KLSX 290607
RWRMO

WEATHER SUMMARY FOR MISSOURI
NATIONAL WEATHER SERVICE SPRINGFIELD MO
100 AM CDT TUE JUL 29 2014

NOTE: "FAIR" INDICATES FEW OR NO CLOUDS BELOW 12,000 FEET WITH NO
       SIGNIFICANT WEATHER AND/OR OBSTRUCTIONS TO VISIBILITY.
       CURRENT SKY AND/OR WEATHER CONDITIONS ARE NOT AVAILABLE FOR
       CHILLICOTHE AND FARMINGTON.

MOZ001>031-035>038-043-044-053-054-290700-
...NORTHERN AND WESTERN MISSOURI...

CITY           SKY/WX    TMP DP  RH WIND       PRES   REMARKS
KANSAS CTY INT CLEAR     63  58  83 N6        30.18S
6HR MIN TEMP:  63; 6HR MAX TEMP:  75;

KANSAS C DTWN  CLEAR     69  61  75 CALM      30.17R
6HR MIN TEMP:  69; 6HR MAX TEMP:  79;

LEE`S SUMMIT   CLEAR     65  59  81 CALM      30.18S
6HR MIN TEMP:  65; 6HR MAX TEMP:  78;

ST JOSEPH      CLEAR     58  56  93 CALM      30.18S
6HR MIN TEMP:  58; 6HR MAX TEMP:  77;

CHILLICOTHE      N/A     65  61  87 CALM      30.17S
6HR MIN TEMP:  64; 6HR MAX TEMP:  79;

KIRKSVILLE     CLEAR     57  56  96 CALM      30.17R FOG
6HR MIN TEMP:  57; 6HR MAX TEMP:  73;


$$
MOZ066>068-077>081-088>096-101>105-290700-
...SOUTHWEST MISSOURI...

CITY           SKY/WX    TMP DP  RH WIND       PRES   REMARKS
SPRINGFIELD    CLEAR     65  57  75 CALM      30.16S
6HR MIN TEMP:  65; 6HR MAX TEMP:  80;

JOPLIN         PTCLDY    64  59  83 CALM      30.17R
6HR MIN TEMP:  64; 6HR MAX TEMP:  82;


$$
MOZ032>034-039>042-045>050-055>058-069>072-290700-
...CENTRAL MISSOURI...

CITY           SKY/WX    TMP DP  RH WIND       PRES   REMARKS
COLUMBIA       CLEAR     61  55  81 CALM      30.16S
6HR MIN TEMP:  60; 6HR MAX TEMP:  76;

JEFFERSON CITY CLEAR     61  54  77 CALM      30.15S
6HR MIN TEMP:  61; 6HR MAX TEMP:  76;

ROLLA          CLEAR     57  52  83 CALM      30.15S
6HR MIN TEMP:  56; 6HR MAX TEMP:  76;

SEDALIA        CLEAR     65  56  72 CALM      30.17S
6HR MIN TEMP:  62; 6HR MAX TEMP:  77;

WHITEMAN AFB   PTCLDY    61  50  68 S2        30.16S
OSAGE BEACH    CLEAR     61  54  77 CALM      30.17S

$$
MOZ051-052-059>065-290700-
...EAST CENTRAL MISSOURI...

CITY           SKY/WX    TMP DP  RH WIND       PRES   REMARKS
ST LOUIS INTL  CLEAR     62  54  74 CALM      30.14S
6HR MIN TEMP:  62; 6HR MAX TEMP:  73;

SPIRIT OF STL  CLEAR     57  53  86 CALM      30.13S
6HR MIN TEMP:  56; 6HR MAX TEMP:  74;

ST CHARLES     CLEAR     59  54  83 CALM      30.13S
6HR MIN TEMP:  58; 6HR MAX TEMP:  72;


$$
MOZ072>076-082>087-097>100-106>115-290700-
...SOUTH CENTRAL AND SOUTHEAST MISSOURI...

CITY           SKY/WX    TMP DP  RH WIND       PRES   REMARKS
CAPE GIRARDEAU CLEAR     60  57  89 CALM      30.10S
6HR MIN TEMP:  60; 6HR MAX TEMP:  78;

FARMINGTON     CLEAR     61  54  77 N6        30.16S
6HR MIN TEMP:  61; 6HR MAX TEMP:  75;

POPLAR BLUFF   CLEAR     64  58  80 N6        30.10S
6HR MIN TEMP:  64; 6HR MAX TEMP:  82;

WEST PLAINS    CLEAR     62  56  80 N5        30.16S
6HR MIN TEMP:  62; 6HR MAX TEMP:  79;


$$



USA.gov is the U.S. government's official web portal to all federal, state and local government web resources and services.